sat.trackr.live / text

‹ back to catalog

STARLINK-31354

NORAD 58942 · 2024-027M

PAYLOAD ACTIVE UNKNOWN

§ Identity

Operator
Country
US
Launch date
2024-02-10
Launch site
AFWTR
Launch vehicle
Mass (kg)
RCS (m²)

Purposes: comms

External: N2YO · Heavens-Above · Gunter

§ Orbital elements

Epoch: 2026-05-25T04:43:12.892800Z

Period
94.01 min
Inclination
53.1606°
Eccentricity
0.0001355
Mean motion
15.31691068 rev/d
Perigee alt
469.8 km
Apogee alt
471.7 km
Semi-major
6,848.9 km
B*
1.1387e-4
RAAN
314.1304°
Arg perigee
89.6009°
Mean anomaly
270.5148°
Rev number
12,904

§ Raw data

STARLINK-313541 58942U 24027M   26145.19667700  .00003169  00000+0  11387-3 0  99982 58942  53.1606 314.1304 0001355  89.6009 270.5148 15.31691068129046

JSON: /api/v1/satellites/58942 · /tle

For live sub-satellite position, see the globe view (requires WebGL).

§ Visibility from observer

Set your observer location to see the next 7 days of passes ≥ 10°. The values pass through the URL so the page stays shareable.

No JS? Fill the form by hand. The geolocation button needs JavaScript.